カタログに戻る

COSMOS 1579 FUEL CORE

運用中LEO
NORAD 15330·DEBRIS·🇷🇺 Russia

打ち上げ Jun 29, 1984 から Baikonur Cosmodrome

Loading…

次のパス (今後24時間)

TLE

最新Source: Space-Track

元期: Sep 14, 2026, 13:53 UTC

1 15330U 84069D   26257.57850758 -.00000068  00000-0  17659-4 0  9993
2 15330  65.0560 314.4553 0050052 284.6314 148.0140 13.89920671144408

AllMySatでCOSMOS 1579 FUEL COREをリアルタイム追跡

Download on the App Store